Regional Weather Roundup
Issued by NWS Midland/Odessa, TX

Skip options and go directly to product.
Home | Oldest Version | Previous Version | Current Version | All | Graphics & Text | Save Text | Print | Product List | Glossary On

Skip product version selection by date and time.   
639
ASUS44 KMAF 240210
RWRMAF
MIDLAND AREA WEATHER ROUNDUP
NATIONAL WEATHER SERVICE MIDLAND TX
900 PM CDT SAT JUL 23 2016

...IN SOUTHWEST TEXAS AND SOUTHEAST NEW MEXICO...

CITY           SKY/WX    TMP DP  RH WIND       PRES   REMARKS
ALPINE         CLEAR     89  48  24 SE9       30.07R
ANDREWS        FAIR      92  54  28 S7        29.95S
ARTESIA        CLEAR     95  39  14 SE9       29.92R
BIG SPRING     CLEAR     93  60  33 SE5       29.94S
CARLSBAD       MOCLDY    96  42  15 SE9       29.88R
DRYDEN           N/A     94  58  29 E13G20    29.86S
FORT STOCKTON  CLEAR     92  56  29 SE14G22   29.91R
GUAD PASS      CLEAR     88  41  19 E24       30.08S
HOBBS          CLEAR     91  48  22 SE14      29.97R
MARFA          CLEAR     87  49  26 SE12      30.05R
MIDLAND AIRPK  CLEAR     95  54  25 SE8       29.93S
MIDLAND INTL   CLEAR     94  56  27 SE9       29.92S
ODESSA         CLEAR     94  54  25 S12       29.94R
PECOS          CLEAR     97  54  23 E20       29.85S
PRESIDIO       FAIR      99  49  18 E9        29.85R
SEMINOLE       CLEAR     91  51  25 SE6       29.97R
SNYDER           N/A     92  61  35 SE7       29.93S
WINK           CLEAR     95  54  25 SE14      29.87R
$$
...OTHER STATIONS IN TEXAS...

CITY           SKY/WX    TMP DP  RH WIND       PRES   REMARKS
ABILENE        CLEAR     92  61  35 SE10      29.90R
AMARILLO       CLEAR     89  51  27 S14       29.97R
AUSTIN         PTCLDY    91  69  48 SE6       29.86R
BROWNSVILLE    CLEAR     84  74  71 SE10      29.89R
CORPUS CHRISTI PTCLDY    85  78  80 SE12      29.87R
DALLAS FTW     PTCLDY    93  68  43 SE9       29.88R
DEL RIO        CLEAR     97  59  28 E9        29.80R
EL PASO        PTCLDY   100  37  11 CALM      29.91R
HOUSTON INT    PTCLDY    89  72  56 S9        29.90R
LUBBOCK        PTCLDY    90  54  29 S8        29.97R
SAN ANGELO     CLEAR     91  60  35 SE5       29.87S
SAN ANTONIO    PTCLDY    92  66  42 SE8       29.86S
WACO           CLEAR     93  67  42 SE9       29.88R
WICHITA FALLS  NOT AVBL
$$
...OTHER LOCATIONS IN NEW MEXICO...

CITY           SKY/WX    TMP DP  RH WIND       PRES   REMARKS
ALAMAGORDO     CLEAR     97  37  12 S6        29.93R
ALBUQUERQUE    CLOUDY    95  42  16 SW10      30.02R
CANNON AFB     CLEAR     87  48  25 SE9       30.01R
CLOVIS         CLEAR     88  48  25 S9        30.01S
HOLLOMAN AFB   NOT AVBL
ROSWELL        CLEAR     96  37  12 SE9       29.92R
RUIDOSO          N/A     79  39  24 SE9       30.23R
SANTA FE       RAIN      81  47  30 NE17      30.12R
TRUTH OR CONSE PTCLDY    91  42  18 NW22G28   30.01R
TUCUMCARI      CLEAR     92  38  15 S10       29.94R
$$

USA.gov is the U.S. government's official web portal to all federal, state and local government web resources and services.